When you browse on this site, cookies collect data to enhance your experience and personalize the content and advertising you see.
Visit our Privacy Policy to learn more. By continuing to use the site, you agree to this use of cookies and data.
  • în România
  • Lista ţărilor
  • Pe 7 zile
  • Temperatura apei
  • Hartă satelitară
  • Meteo pe hartă
  • Widget-uri
  • user-avatar
    Intrare

    Meteo pe oră la Swansea

    Astăzi, 20 Ianuarie, Duminică

    Timp Temperatura Precipitaţii Vânt Presiune Umiditate
    00:00 +5°C° 0 mm 2 m/s 756 mmHg 95%
    01:00 +5°C° 0 mm 2 m/s 757 mmHg 95%
    02:00 +5°C° 0 mm 2 m/s 757 mmHg 94%
    03:00 +6°C° 0 mm 2 m/s 757 mmHg 94%
    04:00 +6°C° 0 mm 1 m/s 758 mmHg 94%
    05:00 +6°C° 0 mm 1 m/s 758 mmHg 94%
    06:00 +6°C° 0 mm 1 m/s 759 mmHg 94%
    07:00 +6°C° 0 mm 1 m/s 759 mmHg 94%
    08:00 +5°C° 0 mm 1 m/s 760 mmHg 94%
    09:00 +5°C° 0 mm 1 m/s 761 mmHg 95%
    10:00 +6°C° 0 mm 1 m/s 761 mmHg 92%
    11:00 +7°C° 0 mm 1 m/s 762 mmHg 90%
    12:00 +8°C° 0 mm 1 m/s 762 mmHg 87%
    13:00 +8°C° 0 mm 2 m/s 763 mmHg 85%
    14:00 +8°C° 0 mm 3 m/s 763 mmHg 83%
    15:00 +7°C° 0 mm 4 m/s 763 mmHg 81%
    16:00 +7°C° 0 mm 3 m/s 764 mmHg 85%
    17:00 +5°C° 0 mm 3 m/s 764 mmHg 88%
    18:00 +4°C° 0 mm 3 m/s 765 mmHg 91%
    19:00 +4°C° 0 mm 3 m/s 765 mmHg 91%
    20:00 +5°C° 0 mm 2 m/s 766 mmHg 91%
    21:00 +5°C° 0 mm 2 m/s 767 mmHg 91%
    22:00 +5°C° 0 mm 2 m/s 767 mmHg 91%
    23:00 +5°C° 0 mm 2 m/s 767 mmHg 91%

    Mâine, 21 Ianuarie, Luni

    Timp Temperatura Precipitaţii Vânt Presiune Umiditate
    00:00 +5°C° 0 mm 2 m/s 767 mmHg 91%
    01:00 +5°C° 0 mm 2 m/s 767 mmHg 91%
    02:00 +5°C° 0 mm 2 m/s 767 mmHg 91%
    03:00 +4°C° 0 mm 2 m/s 767 mmHg 91%
    04:00 +4°C° 0 mm 2 m/s 767 mmHg 92%
    05:00 +5°C° 0 mm 1 m/s 767 mmHg 92%
    06:00 +4°C° 0 mm 1 m/s 767 mmHg 93%
    07:00 +4°C° 0 mm 1 m/s 767 mmHg 93%
    08:00 +5°C° 0 mm 1 m/s 766 mmHg 93%
    09:00 +5°C° 0 mm 1 m/s 766 mmHg 93%
    10:00 +5°C° 0 mm 2 m/s 766 mmHg 89%
    11:00 +5°C° 0 mm 3 m/s 765 mmHg 84%
    12:00 +6°C° 0 mm 4 m/s 764 mmHg 79%
    13:00 +5°C° 0.1 mm 4 m/s 764 mmHg 81%
    14:00 +5°C° 0.1 mm 5 m/s 763 mmHg 82%
    15:00 +4°C° 0.1 mm 6 m/s 762 mmHg 83%
    16:00 +4°C° 0.1 mm 7 m/s 761 mmHg 83%
    17:00 +4°C° 0.1 mm 7 m/s 759 mmHg 83%
    18:00 +4°C° 0.1 mm 8 m/s 758 mmHg 83%
    19:00 +5°C° 0.9 mm 9 m/s 757 mmHg 85%
    20:00 +5°C° 0.9 mm 10 m/s 756 mmHg 87%
    21:00 +4°C° 0.9 mm 12 m/s 755 mmHg 90%
    22:00 +3°C° 1.3 mm 10 m/s 754 mmHg 86%
    23:00 +2°C° 1.3 mm 9 m/s 754 mmHg 82%

    Poimâine, 22 Ianuarie, Marţi

    Timp Temperatura Precipitaţii Vânt Presiune Umiditate
    00:00 0°C° 1.3 mm 7 m/s 753 mmHg 79%
    01:00 0°C° 0 mm 7 m/s 753 mmHg 80%
    02:00 0°C° 0 mm 7 m/s 752 mmHg 81%
    03:00 -1°C° 0 mm 7 m/s 752 mmHg 82%
    04:00 -1°C° 0.3 mm 7 m/s 751 mmHg 82%
    05:00 -1°C° 0.3 mm 7 m/s 751 mmHg 82%
    06:00 -1°C° 0.3 mm 7 m/s 750 mmHg 82%
    07:00 -1°C° 0.1 mm 7 m/s 750 mmHg 82%
    08:00 -1°C° 0.1 mm 7 m/s 750 mmHg 81%
    09:00 -2°C° 0.1 mm 7 m/s 751 mmHg 80%
    10:00 -1°C° 0 mm 8 m/s 751 mmHg 77%
    11:00 0°C° 0 mm 9 m/s 751 mmHg 73%
    12:00 0°C° 0 mm 10 m/s 751 mmHg 69%
    13:00 0°C° 0.1 mm 9 m/s 751 mmHg 70%
    14:00 0°C° 0.1 mm 9 m/s 751 mmHg 70%
    15:00 0°C° 0.1 mm 8 m/s 751 mmHg 70%
    16:00 -1°C° 0 mm 8 m/s 752 mmHg 73%
    17:00 -1°C° 0 mm 7 m/s 752 mmHg 76%
    18:00 -2°C° 0 mm 7 m/s 752 mmHg 78%
    19:00 -2°C° 0 mm 6 m/s 753 mmHg 79%
    20:00 -2°C° 0 mm 6 m/s 753 mmHg 79%
    21:00 -2°C° 0 mm 6 m/s 753 mmHg 80%
    22:00 -1°C° 0 mm 5 m/s 753 mmHg 80%
    23:00 -1°C° 0 mm 5 m/s 754 mmHg 81%

    23 Ianuarie, Miercuri

    Timp Temperatura Precipitaţii Vânt Presiune Umiditate
    00:00 -1°C° 0 mm 5 m/s 754 mmHg 82%
    01:00 -1°C° 0 mm 5 m/s 754 mmHg 82%
    02:00 -1°C° 0 mm 5 m/s 754 mmHg 82%
    03:00 -1°C° 0 mm 5 m/s 754 mmHg 82%
    04:00 -1°C° 0 mm 5 m/s 754 mmHg 83%
    05:00 -1°C° 0 mm 5 m/s 754 mmHg 84%
    06:00 -1°C° 0 mm 4 m/s 754 mmHg 85%
    07:00 -1°C° 0 mm 4 m/s 755 mmHg 84%
    08:00 -1°C° 0 mm 4 m/s 755 mmHg 83%
    09:00 0°C° 0 mm 3 m/s 755 mmHg 83%
    10:00 +2°C° 0 mm 3 m/s 756 mmHg 79%
    11:00 +3°C° 0 mm 3 m/s 756 mmHg 75%
    12:00 +4°C° 0 mm 3 m/s 756 mmHg 71%
    13:00 +4°C° 0 mm 3 m/s 756 mmHg 72%
    14:00 +4°C° 0 mm 3 m/s 756 mmHg 74%
    15:00 +4°C° 0 mm 3 m/s 756 mmHg 75%
    16:00 +3°C° 0 mm 3 m/s 756 mmHg 78%
    17:00 +2°C° 0 mm 3 m/s 757 mmHg 81%
    18:00 +3°C° 0 mm 2 m/s 757 mmHg 83%
    19:00 +3°C° 0 mm 2 m/s 758 mmHg 83%
    20:00 +3°C° 0 mm 2 m/s 758 mmHg 83%
    21:00 +3°C° 0 mm 2 m/s 758 mmHg 82%
    22:00 +3°C° 0 mm 2 m/s 758 mmHg 84%
    23:00 +3°C° 0 mm 2 m/s 758 mmHg 85%

    24 Ianuarie, Joi

    Timp Temperatura Precipitaţii Vânt Presiune Umiditate
    00:00 +4°C° 0 mm 2 m/s 758 mmHg 87%
    01:00 +4°C° 0 mm 2 m/s 758 mmHg 89%
    02:00 +4°C° 0 mm 2 m/s 758 mmHg 91%
    03:00 +4°C° 0 mm 2 m/s 757 mmHg 93%
    04:00 +5°C° 0.8 mm 2 m/s 757 mmHg 94%
    05:00 +5°C° 0.8 mm 2 m/s 757 mmHg 96%
    06:00 +6°C° 0.8 mm 2 m/s 757 mmHg 97%
    07:00 +6°C° 0.9 mm 2 m/s 757 mmHg 97%
    08:00 +6°C° 0.9 mm 2 m/s 757 mmHg 97%
    09:00 +7°C° 0.9 mm 1 m/s 757 mmHg 97%
    10:00 +6°C° 0.3 mm 2 m/s 757 mmHg 97%
    11:00 +7°C° 0.3 mm 2 m/s 757 mmHg 97%
    12:00 +7°C° 0.3 mm 2 m/s 757 mmHg 97%
    13:00 +7°C° 0 mm 2 m/s 757 mmHg 96%
    14:00 +8°C° 0 mm 2 m/s 757 mmHg 96%
    15:00 +8°C° 0 mm 3 m/s 757 mmHg 96%
    16:00 +8°C° 0.1 mm 3 m/s 758 mmHg 96%
    17:00 +7°C° 0.1 mm 3 m/s 759 mmHg 96%
    18:00 +7°C° 0.1 mm 3 m/s 759 mmHg 97%
    19:00 +7°C° 0.1 mm 2 m/s 760 mmHg 97%
    20:00 +7°C° 0.1 mm 2 m/s 760 mmHg 96%
    21:00 +8°C° 0.1 mm 1 m/s 761 mmHg 96%
    22:00 +8°C° 0.1 mm 1 m/s 761 mmHg 97%
    23:00 +8°C° 0.1 mm 1 m/s 761 mmHg 97%

    25 Ianuarie, Vineri

    Timp Temperatura Precipitaţii Vânt Presiune Umiditate
    00:00 +8°C° 0.1 mm 1 m/s 762 mmHg 97%
    01:00 +8°C° 0.1 mm 1 m/s 762 mmHg 97%
    02:00 +8°C° 0.1 mm 1 m/s 762 mmHg 97%
    03:00 +8°C° 0.1 mm 1 m/s 762 mmHg 97%
    04:00 +8°C° 0.1 mm 1 m/s 763 mmHg 97%
    05:00 +8°C° 0.1 mm 2 m/s 763 mmHg 97%
    06:00 +8°C° 0.1 mm 2 m/s 763 mmHg 97%
    07:00 +8°C° 0 mm 2 m/s 763 mmHg 97%
    08:00 +8°C° 0 mm 2 m/s 764 mmHg 97%
    09:00 +8°C° 0 mm 2 m/s 764 mmHg 97%
    10:00 +9°C° 0 mm 3 m/s 764 mmHg 96%
    11:00 +9°C° 0 mm 3 m/s 764 mmHg 95%
    12:00 +10°C° 0 mm 3 m/s 764 mmHg 93%
    13:00 +10°C° 0 mm 3 m/s 764 mmHg 92%
    14:00 +10°C° 0 mm 4 m/s 764 mmHg 90%
    15:00 +10°C° 0 mm 4 m/s 764 mmHg 88%
    16:00 +8°C° 0 mm 4 m/s 764 mmHg 89%
    17:00 +7°C° 0 mm 4 m/s 764 mmHg 89%
    18:00 +6°C° 0 mm 4 m/s 764 mmHg 89%
    19:00 +6°C° 0 mm 4 m/s 764 mmHg 89%
    20:00 +6°C° 0 mm 4 m/s 764 mmHg 90%
    21:00 +6°C° 0 mm 5 m/s 764 mmHg 90%
    22:00 +6°C° 0 mm 5 m/s 764 mmHg 91%
    23:00 +7°C° 0 mm 5 m/s 764 mmHg 93%
    Arată mai mult